• In Netherlands
  • List of Countries
  • For 7 days
  • Water Temperature
  • Satellite Maps
  • Weather Map
  • Weather Widgets
  • user-avatar
    Login

    Hourly Weather Parakou

    Today, 27 June, Tuesday

    Time Temperature Precipitation Wind Pressure Humidity
    00:00 +24°C° 0 mm 1 mps 728 mmHg 85%
    01:00 +24°C° 0.1 mm 1 mps 728 mmHg 85%
    02:00 +24°C° 0.1 mm 1 mps 728 mmHg 86%
    03:00 +24°C° 0.1 mm 1 mps 728 mmHg 86%
    04:00 +24°C° 0 mm 1 mps 728 mmHg 87%
    05:00 +24°C° 0 mm 1 mps 728 mmHg 88%
    06:00 +23°C° 0 mm 1 mps 728 mmHg 89%
    07:00 +26°C° 0 mm 2 mps 729 mmHg 82%
    08:00 +28°C° 0 mm 2 mps 729 mmHg 74%
    09:00 +30°C° 0 mm 2 mps 729 mmHg 67%
    10:00 +31°C° 0 mm 2 mps 729 mmHg 60%
    11:00 +34°C° 0 mm 2 mps 729 mmHg 52%
    12:00 +36°C° 0 mm 2 mps 729 mmHg 45%
    13:00 +36°C° 0 mm 2 mps 728 mmHg 44%
    14:00 +36°C° 0 mm 2 mps 728 mmHg 42%
    15:00 +37°C° 0 mm 2 mps 727 mmHg 41%
    16:00 +35°C° 0 mm 2 mps 727 mmHg 46%
    17:00 +34°C° 0 mm 2 mps 727 mmHg 52%
    18:00 +31°C° 0 mm 2 mps 727 mmHg 58%
    19:00 +30°C° 0.1 mm 2 mps 727 mmHg 61%
    20:00 +29°C° 0.1 mm 2 mps 728 mmHg 65%
    21:00 +28°C° 0.1 mm 2 mps 728 mmHg 68%
    22:00 +28°C° 0.2 mm 2 mps 728 mmHg 72%
    23:00 +27°C° 0.2 mm 2 mps 728 mmHg 76%

    Tomorrow, 28 June, Wednesday

    Time Temperature Precipitation Wind Pressure Humidity
    00:00 +26°C° 0.2 mm 2 mps 728 mmHg 80%
    01:00 +26°C° 0 mm 2 mps 728 mmHg 82%
    02:00 +26°C° 0 mm 2 mps 728 mmHg 85%
    03:00 +25°C° 0 mm 2 mps 728 mmHg 87%
    04:00 +25°C° 0.3 mm 2 mps 728 mmHg 90%
    05:00 +24°C° 0.3 mm 2 mps 728 mmHg 92%
    06:00 +24°C° 0.3 mm 2 mps 728 mmHg 94%
    07:00 +25°C° 0.4 mm 2 mps 729 mmHg 88%
    08:00 +27°C° 0.4 mm 2 mps 729 mmHg 82%
    09:00 +28°C° 0.4 mm 3 mps 730 mmHg 76%
    10:00 +30°C° 0 mm 2 mps 730 mmHg 68%
    11:00 +32°C° 0 mm 2 mps 729 mmHg 59%
    12:00 +35°C° 0 mm 2 mps 729 mmHg 50%
    13:00 +35°C° 0.1 mm 2 mps 728 mmHg 48%
    14:00 +36°C° 0.1 mm 2 mps 727 mmHg 46%
    15:00 +36°C° 0.1 mm 2 mps 726 mmHg 44%
    16:00 +34°C° 0.3 mm 2 mps 726 mmHg 52%
    17:00 +32°C° 0.3 mm 2 mps 726 mmHg 60%
    18:00 +30°C° 0.3 mm 2 mps 726 mmHg 68%
    19:00 +29°C° 0.6 mm 2 mps 727 mmHg 73%
    20:00 +28°C° 0.6 mm 2 mps 728 mmHg 79%
    21:00 +27°C° 0.6 mm 2 mps 728 mmHg 85%
    22:00 +26°C° 0 mm 2 mps 728 mmHg 87%
    23:00 +26°C° 0 mm 3 mps 728 mmHg 89%

    Day after tomorrow, 29 June, Thursday

    Time Temperature Precipitation Wind Pressure Humidity
    00:00 +25°C° 0 mm 3 mps 729 mmHg 92%
    01:00 +25°C° 0 mm 3 mps 728 mmHg 93%
    02:00 +25°C° 0 mm 3 mps 728 mmHg 94%
    03:00 +25°C° 0 mm 2 mps 728 mmHg 95%
    04:00 +24°C° 0 mm 2 mps 728 mmHg 95%
    05:00 +24°C° 0 mm 3 mps 728 mmHg 95%
    06:00 +24°C° 0 mm 3 mps 729 mmHg 95%
    07:00 +25°C° 0 mm 3 mps 729 mmHg 88%
    08:00 +26°C° 0 mm 3 mps 729 mmHg 82%
    09:00 +28°C° 0 mm 4 mps 730 mmHg 75%
    10:00 +30°C° 0 mm 3 mps 729 mmHg 67%
    11:00 +33°C° 0 mm 3 mps 729 mmHg 59%
    12:00 +34°C° 0 mm 2 mps 729 mmHg 52%
    13:00 +35°C° 0 mm 2 mps 728 mmHg 50%
    14:00 +35°C° 0 mm 2 mps 727 mmHg 48%
    15:00 +36°C° 0 mm 2 mps 726 mmHg 46%
    16:00 +34°C° 0.2 mm 2 mps 726 mmHg 52%
    17:00 +32°C° 0.2 mm 1 mps 726 mmHg 58%
    18:00 +30°C° 0.2 mm 1 mps 727 mmHg 64%
    19:00 +29°C° 0.8 mm 1 mps 727 mmHg 69%
    20:00 +28°C° 0.8 mm 2 mps 728 mmHg 74%
    21:00 +27°C° 0.8 mm 2 mps 728 mmHg 79%
    22:00 +27°C° 0 mm 2 mps 728 mmHg 81%
    23:00 +27°C° 0 mm 2 mps 728 mmHg 82%

    30 June, Friday

    Time Temperature Precipitation Wind Pressure Humidity
    00:00 +26°C° 0 mm 3 mps 728 mmHg 84%
    01:00 +26°C° 0.6 mm 2 mps 728 mmHg 88%
    02:00 +25°C° 0.6 mm 2 mps 728 mmHg 91%
    03:00 +24°C° 0.6 mm 2 mps 728 mmHg 95%
    04:00 +24°C° 0.3 mm 2 mps 728 mmHg 95%
    05:00 +24°C° 0.3 mm 2 mps 729 mmHg 96%
    06:00 +24°C° 0.3 mm 2 mps 729 mmHg 96%
    07:00 +25°C° 0 mm 3 mps 729 mmHg 92%
    08:00 +26°C° 0 mm 3 mps 730 mmHg 88%
    09:00 +27°C° 0 mm 3 mps 730 mmHg 84%
    10:00 +28°C° 0 mm 3 mps 730 mmHg 77%
    11:00 +29°C° 0 mm 3 mps 729 mmHg 71%
    12:00 +31°C° 0 mm 3 mps 729 mmHg 65%
    13:00 +32°C° 0.1 mm 2 mps 728 mmHg 60%
    14:00 +34°C° 0.1 mm 2 mps 727 mmHg 56%
    15:00 +33°C° 0.1 mm 1 mps 727 mmHg 52%
    16:00 +32°C° 1.1 mm 1 mps 727 mmHg 61%
    17:00 +30°C° 1.1 mm 2 mps 727 mmHg 70%
    18:00 +28°C° 1.1 mm 2 mps 727 mmHg 79%
    19:00 +27°C° 0.3 mm 2 mps 728 mmHg 83%
    20:00 +26°C° 0.3 mm 2 mps 728 mmHg 87%
    21:00 +26°C° 0.3 mm 2 mps 729 mmHg 91%
    22:00 +25°C° 0 mm 2 mps 729 mmHg 92%
    23:00 +25°C° 0 mm 2 mps 728 mmHg 93%

    1 July, Saturday

    Time Temperature Precipitation Wind Pressure Humidity
    00:00 +25°C° 0 mm 2 mps 728 mmHg 94%
    01:00 +25°C° 0 mm 2 mps 728 mmHg 95%
    02:00 +24°C° 0 mm 2 mps 728 mmHg 95%
    03:00 +24°C° 0 mm 2 mps 727 mmHg 96%
    04:00 +24°C° 0 mm 2 mps 728 mmHg 96%
    05:00 +24°C° 0 mm 2 mps 728 mmHg 95%
    06:00 +24°C° 0 mm 3 mps 729 mmHg 95%
    07:00 +25°C° 0 mm 3 mps 729 mmHg 92%
    08:00 +25°C° 0 mm 3 mps 730 mmHg 88%
    09:00 +26°C° 0 mm 3 mps 730 mmHg 85%
    10:00 +28°C° 0 mm 3 mps 729 mmHg 77%
    11:00 +29°C° 0 mm 3 mps 729 mmHg 69%
    12:00 +31°C° 0 mm 3 mps 729 mmHg 61%
    13:00 +33°C° 0 mm 3 mps 728 mmHg 58%
    14:00 +34°C° 0 mm 2 mps 727 mmHg 55%
    15:00 +34°C° 0 mm 2 mps 726 mmHg 52%
    16:00 +32°C° 0.6 mm 2 mps 727 mmHg 59%
    17:00 +30°C° 0.6 mm 2 mps 727 mmHg 66%
    18:00 +29°C° 0.6 mm 2 mps 727 mmHg 73%
    19:00 +28°C° 3.7 mm 2 mps 728 mmHg 80%
    20:00 +27°C° 3.7 mm 2 mps 728 mmHg 86%
    21:00 +25°C° 3.7 mm 2 mps 729 mmHg 92%
    22:00 +25°C° 0.1 mm 2 mps 729 mmHg 93%
    23:00 +25°C° 0.1 mm 2 mps 728 mmHg 94%

    2 July, Sunday

    Time Temperature Precipitation Wind Pressure Humidity
    00:00 +25°C° 0.1 mm 3 mps 728 mmHg 95%
    01:00 +25°C° 0 mm 3 mps 728 mmHg 96%
    02:00 +25°C° 0 mm 3 mps 727 mmHg 96%
    03:00 +24°C° 0 mm 3 mps 727 mmHg 96%
    04:00 +24°C° 0 mm 2 mps 728 mmHg 96%
    05:00 +24°C° 0 mm 2 mps 728 mmHg 96%
    06:00 +24°C° 0 mm 2 mps 729 mmHg 95%
    07:00 +25°C° 0.1 mm 2 mps 729 mmHg 93%
    08:00 +25°C° 0.1 mm 2 mps 730 mmHg 90%
    09:00 +26°C° 0.1 mm 2 mps 730 mmHg 87%
    10:00 +27°C° 0 mm 2 mps 729 mmHg 81%
    11:00 +28°C° 0 mm 2 mps 729 mmHg 76%
    12:00 +29°C° 0 mm 2 mps 728 mmHg 70%
    13:00 +30°C° 0.3 mm 2 mps 728 mmHg 67%
    14:00 +31°C° 0.3 mm 2 mps 727 mmHg 64%
    15:00 +32°C° 0.3 mm 2 mps 727 mmHg 62%
    16:00 +30°C° 1.7 mm 2 mps 727 mmHg 70%
    17:00 +29°C° 1.7 mm 1 mps 727 mmHg 78%
    18:00 +27°C° 1.7 mm 1 mps 727 mmHg 87%
    19:00 +27°C° 0.4 mm 1 mps 728 mmHg 89%
    20:00 +26°C° 0.4 mm 2 mps 728 mmHg 91%
    21:00 +25°C° 0.4 mm 2 mps 729 mmHg 93%
    22:00 +25°C° 0 mm 2 mps 728 mmHg 94%
    23:00 +25°C° 0 mm 2 mps 728 mmHg 94%
    Show more